Wind_Speed
11 10 12 15 5 7 6 4 6 3 3 3 6 4 7 10 10 11 11 10 9 8 9 14 21 23 28 30 31 28 26 24 23 23 23 24 26 25 21 18 16 15 16 16 17 18 20 19 18
12 6 7 9 10 10 5 10 11 4 5 6 7 5 8 9 10 11 10 10 10 8 6 9 10 17 22 26 31 27 26 26 23 20 21 21 22 21 19 24 22 18 13 15 16 17 17 17 16
12 6 7 9 14 13 13 14 12 7 8 8 9 9 10 11 11 11 10 12 10 6 2 2 7 10 16 20 27 29 24 25 23 20 20 19 17 16 16 19 14 15 14 13 15 17 17 15 15
12 10 17 8 10 13 13 17 16 12 13 14 12 13 13 12 13 12 12 11 11 5 1 4 4 6 12 16 20 25 26 28 24 19 18 19 17 15 15 14 12 11 10 14 15 17 13 14 14
14 19 19 13 6 4 11 15 19 15 15 15 16 15 15 15 17 17 17 16 15 9 3 2 7 4 7 8 16 18 22 26 25 22 19 16 17 14 10 8 6 9 9 13 12 12 14 17 14
20 24 11 8 9 9 12 15 15 14 13 15 17 20 22 21 23 24 23 20 17 11 6 5 7 5 2 2 8 13 17 21 21 22 22 21 21 18 10 15 19 17 15 12 17 15 14 17 19
25 32 28 16 16 12 15 15 15 15 15 20 21 23 24 24 27 26 23 19 17 14 9 9 5 6 5 4 5 6 11 18 18 20 19 23 19 18 17 17 16 15 13 14 16 15 15 19 24
27 23 21 15 21 20 18 16 13 13 18 20 21 23 26 25 26 27 23 21 17 17 15 15 15 6 11 10 7 9 13 13 16 19 16 17 17 14 17 17 15 15 17 18 15 15 14 21 23
23 19 27 13 15 20 18 18 16 17 17 20 18 18 24 26 27 27 20 20 17 16 16 17 21 23 10 11 11 10 13 13 11 16 13 15 15 10 13 12 15 14 15 18 22 17 19 20 23
28 16 30 25 24 23 20 17 17 19 21 17 19 18 23 26 20 18 15 13 15 16 18 20 19 26 17 15 8 17 17 16 8 8 11 11 13 9 6 7 12 17 13 16 18 18 18 22 25
26 39 32 29 28 24 24 22 21 20 19 20 23 26 20 15 9 9 10 7 8 12 14 17 21 22 25 22 9 11 22 18 14 11 11 10 8 7 5 7 7 12 17 14 14 18 19 20 23
37 32 27 25 27 20 17 20 20 18 19 20 19 17 9 6 3 8 9 9 9 10 8 15 21 26 26 25 20 12 8 22 19 14 12 9 7 3 3 6 13 9 9 15 15 19 19 22 22
28 32 31 25 22 17 15 14 16 14 13 13 11 10 3 3 5 7 10 8 11 11 9 8 10 24 30 30 31 23 20 16 25 19 14 10 10 4 3 4 7 11 13 15 20 15 14 26 25
16 21 20 18 20 20 15 13 12 10 11 13 9 2 3 2 1 7 11 14 12 13 13 14 12 16 20 33 36 31 24 18 24 26 21 16 12 6 6 3 7 6 10 14 19 18 16 17 24
11 20 17 17 20 15 17 15 12 11 11 9 7 6 4 7 11 11 18 19 13 13 17 17 19 19 13 20 33 37 33 29 24 29 26 21 15 12 8 3 11 9 11 13 14 16 19 17 18
7 12 12 11 15 18 18 18 16 15 12 10 10 7 12 9 13 17 18 18 16 18 22 21 21 20 18 16 18 31 37 38 25 27 33 24 20 14 11 8 7 13 10 11 12 14 19 16 19
25 16 16 15 20 23 22 21 19 18 18 16 16 15 13 11 16 18 17 21 22 22 21 18 18 21 16 17 17 23 38 40 34 30 33 33 29 25 15 11 9 13 11 13 13 12 17 17 14
30 24 20 14 17 26 27 23 23 23 24 19 20 19 18 13 12 19 23 16 15 17 20 19 19 15 13 20 20 20 27 43 42 38 30 31 35 29 24 19 16 17 14 14 15 15 17 18 11
26 32 29 21 35 21 25 27 28 30 30 25 25 25 26 21 16 13 18 20 20 22 22 20 21 17 18 26 24 22 21 36 47 46 46 36 30 34 28 23 18 15 16 14 17 19 14 18 15
36 34 33 40 36 40 35 33 33 33 34 32 30 29 29 30 25 17 20 23 21 22 25 22 24 21 22 25 30 25 23 25 42 46 48 38 32 37 34 29 22 26 20 15 15 17 15 11 16
41 39 42 45 44 42 42 42 40 38 38 37 33 31 36 36 35 28 25 25 28 24 23 24 24 25 24 26 29 24 24 19 29 40 42 45 38 36 40 37 30 31 25 19 14 13 16 15 13
44 46 45 47 49 47 45 43 44 43 39 40 38 35 39 43 39 35 35 32 29 27 22 23 26 29 27 28 27 27 26 18 16 29 36 38 39 40 37 38 36 37 29 27 19 20 19 17 14
45 47 51 51 48 46 48 49 46 44 41 38 38 40 34 26 36 34 37 38 31 27 29 28 28 34 30 28 26 27 25 21 13 14 29 35 37 39 37 36 40 37 31 31 20 19 18 18 17
38 43 48 51 52 52 52 52 44 43 43 43 39 42 47 39 40 40 37 28 36 37 33 33 37 34 28 26 25 26 26 19 13 10 19 30 32 39 42 37 39 37 33 32 26 21 20 21 19
40 40 43 47 48 48 50 45 38 37 38 44 37 33 45 46 43 40 36 35 46 47 47 40 36 29 24 25 23 25 21 19 13 11 12 23 31 32 40 40 35 37 35 32 33 29 26 23 22
42 44 43 45 44 42 41 28 24 24 29 39 32 34 40 37 29 39 46 50 46 37 35 31 26 23 21 20 18 20 16 19 19 17 15 17 25 33 38 39 39 38 37 34 30 26 27 24 24
48 47 46 43 42 39 38 22 11 18 30 29 40 32 35 37 40 43 28 38 39 31 27 24 21 21 18 17 19 19 16 17 22 23 23 19 21 27 37 43 42 38 38 35 32 28 30 25 24
50 48 46 43 45 42 34 28 23 14 41 37 38 44 47 41 54 40 36 34 31 29 28 24 21 22 18 19 20 20 19 20 25 29 28 29 26 25 33 46 46 45 38 29 28 26 30 29 26
44 46 44 47 43 40 35 34 43 45 46 50 51 47 40 49 59 52 35 24 21 29 30 28 23 24 24 20 22 22 25 23 24 29 28 30 30 28 28 37 47 48 47 47 40 30 27 27 27
45 46 45 45 43 40 34 22 26 34 35 36 37 44 40 39 43 46 46 38 37 35 34 32 29 26 25 23 23 23 23 19 26 29 24 24 28 30 25 32 36 50 47 51 46 37 28 27 24
Wind_Direction
154 152 141 152 225 129 142 21 209 196 320 310 353 14 340 347 359 5 0 14 35 64 69 72 72 80 77 76 74 73 78 76 75 76 82 91 92 84 80 83 83 72 73 60 49 42 63 58 51
180 179 186 166 163 172 199 188 83 96 247 291 285 297 300 327 343 342 339 354 10 43 83 76 75 84 82 80 75 77 82 77 72 75 78 92 93 78 85 90 72 68 71 50 41 46 43 44 39
209 201 205 133 191 201 205 229 261 243 254 261 277 279 290 297 307 309 314 316 336 6 76 62 73 68 82 84 81 84 87 87 74 77 85 88 91 84 100 92 75 65 55 50 37 36 37 33 28
206 230 194 129 142 196 226 239 249 258 252 265 273 277 287 291 303 306 308 315 324 317 44 173 82 87 86 82 85 88 86 89 84 79 89 93 97 102 105 82 68 70 67 59 46 40 40 47 30
202 263 224 221 237 217 252 247 251 262 272 270 273 275 281 288 287 286 296 306 309 304 258 243 198 101 94 74 94 93 88 81 80 82 87 92 94 102 93 59 78 93 73 50 49 45 35 46 26
210 197 194 255 246 240 261 256 258 264 281 283 281 282 286 287 288 292 293 289 292 292 238 202 199 129 296 11 123 107 102 90 90 80 89 85 85 90 87 63 63 64 75 51 45 48 55 31 21
223 228 250 251 252 248 245 259 267 279 285 287 288 292 293 294 290 291 288 277 271 271 253 206 183 197 186 216 222 121 115 103 99 88 82 87 83 88 81 74 71 62 52 53 51 58 42 27 19
235 245 252 268 254 240 242 251 261 283 286 290 292 289 291 292 291 290 288 270 264 262 255 231 226 185 182 175 192 159 147 123 112 97 96 89 73 66 71 63 55 60 51 47 47 54 43 19 16
234 249 223 209 216 233 238 246 258 279 280 288 295 306 295 290 284 289 282 278 260 253 248 247 227 235 203 207 228 200 175 155 133 120 115 104 93 69 60 57 55 49 47 38 39 60 34 29 15
222 190 192 216 236 248 253 250 258 264 274 278 295 296 288 293 288 291 293 288 279 263 252 244 241 235 216 212 254 236 197 172 167 147 137 128 106 97 63 52 55 56 52 44 37 51 35 25 25
231 220 218 241 253 261 257 253 251 260 269 277 298 297 289 294 315 309 313 298 331 272 257 247 246 239 243 243 261 214 203 190 181 172 172 149 117 99 64 46 16 56 46 46 30 29 33 27 20
227 240 240 240 247 258 253 248 251 261 270 290 293 289 281 292 9 38 46 37 12 350 302 261 252 249 245 243 240 243 222 208 188 182 180 161 160 127 112 34 30 41 42 40 29 32 34 30 22
231 236 245 248 242 241 244 239 248 251 283 284 279 292 323 162 101 24 4 354 354 351 351 322 292 261 250 243 247 220 221 217 207 196 183 188 171 179 318 31 28 29 46 26 26 23 18 19 15
233 239 239 241 242 245 234 229 233 245 255 271 283 222 273 203 176 336 334 331 330 323 326 332 323 308 264 253 247 233 224 212 214 209 197 198 194 194 275 341 359 10 12 20 17 25 22 10 2
259 233 226 225 235 219 213 223 233 242 257 276 262 292 234 276 300 300 315 319 328 323 320 325 324 326 282 274 249 245 233 207 227 214 199 193 199 195 224 296 332 349 359 358 16 20 12 7 354
221 222 209 218 212 215 218 232 231 245 246 259 238 225 265 277 281 298 315 311 298 302 312 307 319 325 310 297 266 245 247 237 236 220 211 197 214 200 216 247 309 325 334 342 353 6 15 4 1
221 219 216 225 245 227 228 233 236 240 234 243 248 257 256 285 307 308 307 313 305 302 308 311 311 325 318 320 290 267 247 243 225 212 220 209 221 226 221 240 276 306 306 317 337 353 351 8 353
215 219 212 204 227 226 229 230 234 246 247 251 259 260 256 259 282 315 313 314 319 314 308 309 309 312 333 329 321 302 264 245 241 216 214 218 216 226 230 228 251 274 302 290 312 339 344 2 353
228 222 208 218 240 228 233 236 244 252 256 266 270 267 270 262 274 291 301 303 306 323 319 305 313 304 315 328 325 312 291 244 239 237 225 228 220 223 224 225 240 259 280 278 286 313 340 3 342
235 231 223 219 236 236 245 248 252 253 255 262 272 280 269 276 274 287 297 303 299 307 322 308 307 307 302 321 331 326 307 253 236 240 234 240 228 226 226 231 233 255 272 273 279 297 325 332 332
231 234 228 229 232 237 245 250 253 256 258 262 273 287 289 285 277 284 289 294 303 304 308 316 308 307 308 313 328 333 325 299 242 236 238 237 230 226 226 228 237 251 267 272 266 285 307 326 337
231 231 233 236 238 243 248 252 255 259 266 273 278 278 280 281 279 280 287 288 290 295 303 309 315 314 304 307 317 335 338 319 296 240 233 231 231 230 226 229 236 245 260 265 266 259 281 304 312
230 235 235 238 242 244 247 251 254 261 269 277 274 284 282 282 276 283 287 286 284 287 295 292 295 309 303 300 306 330 331 327 316 277 240 229 225 222 229 232 235 242 250 259 254 263 267 288 301
229 235 238 240 243 247 250 252 259 266 267 265 264 266 267 264 278 289 277 282 291 292 289 287 286 297 299 294 302 320 328 336 311 305 249 237 230 219 222 229 233 239 245 251 258 256 257 273 283
250 236 241 242 243 247 250 261 265 264 272 267 265 275 268 263 261 273 267 269 285 290 291 285 280 282 283 289 292 308 320 318 316 297 267 239 236 226 223 222 233 237 239 246 252 260 258 259 267
244 251 246 248 247 250 257 254 263 283 271 272 273 277 266 268 275 265 273 276 282 283 283 282 272 266 276 287 286 304 309 328 307 286 277 250 241 231 223 218 228 235 236 243 250 242 250 250 261
246 248 252 254 259 253 252 242 249 296 244 265 265 260 265 286 276 280 278 287 282 280 283 289 270 260 269 272 288 297 290 322 331 302 276 259 244 238 225 218 223 232 234 241 242 244 242 248 255
250 250 254 256 259 260 256 228 234 213 241 257 268 260 269 275 277 277 283 287 272 280 285 287 275 262 260 268 268 286 280 305 321 314 280 263 241 230 227 218 217 218 230 233 231 233 240 241 250
249 254 253 255 257 258 259 237 221 232 251 256 266 270 265 271 273 282 281 270 292 292 278 277 275 257 251 264 265 277 285 304 323 316 289 265 241 225 225 223 220 219 221 219 223 241 235 240 245
249 252 251 254 254 252 246 227 224 244 268 273 270 269 265 263 276 280 281 273 277 285 285 267 264 258 256 261 261 273 277 301 328 327 296 263 241 225 220 220 221 222 225 229 238 246 244 237 233
Height
11062 11063 11069 11067 11067 11069 11072 11067 11066 11063 11067 11065 11065 11065 11063 11064 11065 11066 11066 11065 11063 11062 11061 11061 11059 11056 11054 11052 11049 11048 11047 11046 11045 11044 11043 11042 11041 11041 11040 11039 11039 11039 11038 11036 11034 11032 11030 11028 11026
11058 11060 11065 11067 11072 11074 11074 11067 11068 11064 11067 11069 11068 11067 11066 11065 11066 11067 11068 11066 11065 11065 11064 11063 11063 11060 11059 11056 11053 11052 11052 11050 11049 11048 11047 11047 11046 11045 11044 11042 11043 11042 11041 11039 11036 11033 11031 11030 11027
11056 11058 11058 11060 11066 11071 11073 11074 11069 11071 11070 11072 11070 11067 11066 11065 11066 11067 11067 11067 11067 11066 11065 11064 11064 11064 11063 11061 11058 11056 11055 11053 11053 11052 11050 11050 11050 11048 11046 11046 11046 11044 11043 11040 11037 11036 11034 11031 11028
11057 11058 11056 11055 11060 11065 11073 11074 11074 11074 11072 11070 11069 11067 11067 11067 11067 11067 11067 11066 11066 11066 11066 11065 11065 11066 11065 11064 11062 11060 11059 11055 11055 11055 11054 11053 11052 11051 11049 11049 11047 11045 11044 11042 11041 11040 11036 11033 11030
11060 11050 11059 11058 11057 11059 11068 11072 11073 11074 11070 11068 11067 11066 11066 11066 11066 11066 11066 11066 11066 11066 11066 11066 11065 11066 11066 11065 11065 11064 11063 11060 11059 11058 11056 11056 11055 11054 11053 11051 11048 11047 11046 11044 11043 11041 11038 11035 11031
11055 11055 11054 11054 11056 11056 11064 11067 11068 11069 11068 11066 11066 11065 11065 11065 11065 11065 11064 11064 11064 11064 11065 11066 11066 11066 11067 11066 11066 11066 11065 11063 11061 11061 11059 11059 11058 11056 11055 11053 11051 11050 11047 11047 11045 11043 11041 11037 11033
11050 11052 11054 11055 11055 11055 11059 11063 11067 11065 11065 11064 11065 11065 11063 11063 11061 11062 11061 11061 11061 11062 11064 11065 11066 11067 11066 11068 11067 11067 11067 11065 11064 11063 11064 11061 11061 11060 11058 11056 11054 11052 11050 11049 11047 11045 11042 11039 11033
11045 11049 11051 11050 11050 11054 11058 11063 11065 11063 11063 11063 11063 11062 11059 11060 11059 11055 11056 11057 11058 11059 11061 11063 11065 11066 11065 11065 11066 11066 11067 11066 11065 11064 11066 11063 11063 11063 11061 11059 11057 11055 11053 11051 11046 11046 11043 11040 11036
11046 11047 11047 11051 11052 11054 11058 11061 11062 11061 11061 11061 11060 11060 11055 11056 11055 11051 11053 11052 11054 11055 11057 11059 11061 11061 11065 11065 11065 11066 11066 11067 11066 11064 11066 11064 11065 11065 11064 11062 11059 11058 11056 11052 11049 11047 11045 11044 11040
11046 11046 11047 11048 11052 11053 11054 11056 11058 11058 11058 11058 11058 11057 11054 11052 11052 11051 11050 11050 11050 11051 11053 11055 11057 11058 11062 11062 11064 11065 11065 11066 11066 11066 11066 11066 11065 11066 11065 11064 11062 11061 11057 11055 11052 11050 11048 11044 11041
11047 11044 11046 11049 11050 11050 11050 11054 11055 11055 11056 11056 11057 11055 11054 11053 11052 11051 11049 11049 11048 11047 11048 11050 11052 11054 11056 11058 11061 11062 11063 11064 11065 11066 11067 11066 11066 11066 11066 11064 11064 11063 11060 11056 11054 11052 11050 11046 11044
11040 11040 11042 11044 11045 11047 11048 11051 11054 11056 11056 11056 11054 11054 11054 11053 11052 11051 11051 11049 11049 11048 11047 11049 11049 11051 11053 11055 11057 11061 11059 11061 11062 11065 11067 11067 11066 11066 11066 11065 11065 11064 11061 11058 11056 11053 11050 11047 11045
11032 11034 11037 11040 11043 11045 11047 11049 11052 11055 11055 11054 11053 11053 11055 11053 11052 11052 11051 11050 11050 11049 11050 11049 11048 11048 11049 11051 11052 11056 11059 11058 11061 11063 11064 11066 11065 11065 11065 11065 11065 11066 11062 11060 11057 11054 11051 11048 11046
11031 11034 11036 11039 11041 11043 11046 11047 11050 11053 11054 11053 11052 11053 11051 11052 11052 11052 11051 11051 11050 11048 11049 11048 11047 11045 11045 11046 11047 11050 11052 11055 11058 11059 11061 11063 11064 11064 11064 11064 11064 11065 11064 11061 11059 11054 11053 11052 11049
11029 11030 11032 11035 11038 11042 11043 11046 11049 11051 11052 11054 11054 11051 11053 11052 11051 11052 11051 11049 11048 11047 11046 11046 11044 11041 11039 11039 11040 11043 11044 11050 11053 11056 11057 11060 11062 11062 11063 11062 11063 11063 11063 11062 11061 11058 11055 11053 11049
11027 11029 11033 11036 11037 11040 11041 11044 11046 11047 11050 11051 11053 11054 11050 11051 11051 11050 11049 11048 11046 11046 11044 11042 11041 11039 11037 11035 11034 11037 11038 11042 11047 11051 11053 11057 11059 11060 11061 11062 11062 11062 11062 11061 11060 11058 11055 11052 11051
11027 11031 11032 11035 11036 11038 11040 11041 11043 11044 11046 11047 11048 11049 11051 11047 11044 11045 11047 11044 11044 11042 11042 11041 11039 11037 11035 11033 11031 11031 11032 11034 11041 11045 11047 11052 11054 11057 11059 11060 11060 11062 11062 11060 11059 11057 11056 11053 11050
11023 11029 11030 11030 11031 11032 11035 11037 11039 11041 11042 11042 11043 11043 11045 11048 11047 11042 11038 11041 11042 11042 11040 11038 11038 11036 11033 11031 11029 11027 11025 11027 11030 11038 11040 11045 11049 11053 11056 11057 11057 11059 11061 11060 11057 11057 11055 11055 11051
11019 11022 11028 11028 11026 11028 11030 11033 11036 11036 11037 11039 11040 11040 11040 11041 11043 11045 11040 11038 11038 11037 11037 11035 11034 11033 11031 11029 11025 11022 11019 11019 11023 11029 11034 11038 11044 11047 11051 11053 11054 11056 11058 11059 11057 11056 11057 11054 11052
11015 11018 11022 11020 11018 11023 11024 11027 11029 11031 11032 11034 11036 11036 11037 11037 11037 11040 11036 11034 11037 11036 11034 11033 11031 11031 11029 11025 11021 11017 11015 11013 11016 11019 11026 11031 11039 11043 11046 11049 11051 11052 11054 11056 11056 11055 11055 11054 11052
11011 11012 11014 11015 11015 11017 11020 11022 11023 11025 11027 11028 11031 11034 11029 11027 11030 11033 11034 11032 11029 11031 11032 11029 11029 11027 11025 11022 11020 11016 11012 11009 11009 11014 11018 11025 11030 11036 11040 11044 11046 11047 11050 11052 11054 11053 11053 11053 11052
11004 11003 11006 11008 11011 11012 11013 11016 11016 11017 11022 11023 11026 11027 11025 11018 11022 11023 11025 11029 11028 11024 11026 11026 11024 11023 11022 11019 11017 11014 11009 11006 11003 11006 11011 11016 11022 11028 11033 11038 11041 11044 11045 11047 11050 11051 11051 11051 11050
10994 10993 10996 10999 11003 11004 11006 11006 11010 11012 11016 11020 11019 11019 11023 11016 11016 11018 11018 11016 11024 11023 11020 11020 11020 11018 11017 11016 11015 11012 11008 11003 11001 11000 11002 11008 11013 11020 11025 11030 11035 11038 11041 11043 11046 11048 11048 11048 11048
10986 10985 10985 10989 10993 10995 10996 10999 11007 11010 11008 11007 11010 11008 11006 11013 11011 11011 11013 11013 11010 11014 11017 11014 11012 11013 11012 11011 11010 11009 11006 11003 11000 10998 10999 11001 11006 11012 11016 11022 11029 11033 11037 11040 11042 11045 11045 11046 11046
10971 10977 10978 10981 10983 10987 10989 10996 11004 11001 11000 10995 11000 11001 10992 11006 11011 11007 11006 11009 11007 11004 11004 11006 11006 11006 11007 11006 11006 11006 11005 11002 11000 10998 10997 10997 11001 11005 11009 11015 11021 11027 11032 11035 11038 11041 11042 11044 11044
10966 10966 10970 10972 10975 10983 10985 10992 10991 10993 10994 10989 10990 10991 10986 10992 11000 11005 11002 11003 11001 10999 10996 10997 10996 10998 11000 11001 11002 11002 11001 10999 10996 10995 10994 10994 10995 10998 11003 11006 11011 11020 11026 11030 11033 11035 11038 11040 11041
10955 10960 10961 10967 10969 10974 10975 10986 10985 10983 10979 10983 10982 10985 10985 10984 10990 10991 10993 10992 10992 10993 10991 10989 10989 10990 10993 10995 10996 10997 10997 10995 10992 10989 10988 10989 10989 10991 10994 10998 11005 11012 11018 11024 11028 11030 11032 11036 11038
10946 10950 10955 10957 10955 10961 10971 10976 10974 10970 10964 10971 10973 10974 10977 10981 10974 10982 10985 10984 10984 10985 10983 10983 10982 10983 10986 10990 10991 10992 10991 10989 10987 10983 10981 10980 10981 10983 10985 10990 10996 11003 11010 11016 11021 11024 11027 11031 11034
10941 10940 10945 10943 10948 10952 10954 10960 10963 10959 10957 10958 10961 10962 10969 10971 10963 10966 10979 10978 10977 10978 10978 10977 10977 10978 10980 10983 10985 10986 10986 10984 10982 10977 10971 10969 10971 10974 10978 10982 10988 10995 11003 11008 11014 11017 11021 11024 11029
10929 10930 10932 10934 10937 10941 10945 10947 10945 10951 10958 10959 10958 10951 10954 10960 10958 10958 10956 10966 10968 10969 10971 10970 10970 10971 10974 10976 10978 10981 10981 10979 10975 10971 10964 10962 10963 10967 10971 10976 10981 10988 10995 11001 11005 11011 11014 11018 11021